Time,TemperatureF,DewpointF,PressureIn,WindDirection,WindDirectionDegrees,WindSpeedMPH,WindSpeedGustMPH,Humidity,HourlyPrecipIn,Conditions,Clouds,dailyrainin,SoftwareType,DateUTC
2013-04-14 00:02:00,46.0,39.0,29.96,South,183,0.0,0.0,75,0.00,,,0.00,,2013-04-14 05:02:00,
2013-04-14 00:12:00,46.0,39.0,29.96,South,183,0.0,0.0,75,0.00,,,0.00,,2013-04-14 05:12:00,
2013-04-14 00:22:00,46.0,38.0,29.96,South,183,0.0,0.0,74,0.00,,,0.00,,2013-04-14 05:22:00,
2013-04-14 00:32:00,46.0,38.0,29.94,South,183,0.0,0.0,74,0.00,,,0.00,,2013-04-14 05:32:00,
2013-04-14 00:42:00,46.0,38.0,29.94,South,183,0.0,0.0,74,0.00,,,0.00,,2013-04-14 05:42:00,
2013-04-14 00:52:00,46.0,39.0,29.94,South,183,0.0,0.0,75,0.00,,,0.00,,2013-04-14 05:52:00,
2013-04-14 01:02:00,46.0,39.0,29.94,South,183,0.0,0.0,75,0.00,,,0.00,,2013-04-14 06:02:00,
2013-04-14 01:12:00,46.0,39.0,29.94,South,183,0.0,0.0,75,0.00,,,0.00,,2013-04-14 06:12:00,
2013-04-14 01:22:00,46.0,39.0,29.94,South,183,0.0,0.0,76,0.00,,,0.00,,2013-04-14 06:22:00,
2013-04-14 01:32:00,46.0,39.0,29.92,South,183,0.0,1.0,77,0.00,,,0.00,,2013-04-14 06:32:00,
2013-04-14 01:42:00,46.0,39.0,29.92,South,183,0.0,1.0,77,0.00,,,0.00,,2013-04-14 06:42:00,
2013-04-14 01:52:00,46.0,39.0,29.92,South,183,0.0,0.0,77,0.00,,,0.00,,2013-04-14 06:52:00,
2013-04-14 02:02:00,46.0,39.0,29.92,South,183,0.0,0.0,76,0.00,,,0.00,,2013-04-14 07:02:00,
2013-04-14 02:12:00,46.0,39.0,29.92,South,183,0.0,0.0,76,0.00,,,0.00,,2013-04-14 07:12:00,
2013-04-14 02:22:00,46.0,39.0,29.92,South,183,0.0,0.0,76,0.00,,,0.00,,2013-04-14 07:22:00,
2013-04-14 02:32:00,46.0,39.0,29.92,South,183,0.0,0.0,76,0.00,,,0.00,,2013-04-14 07:32:00,
2013-04-14 02:42:00,46.0,39.0,29.92,South,183,0.0,0.0,76,0.00,,,0.00,,2013-04-14 07:42:00,
2013-04-14 02:52:00,46.0,39.0,29.92,South,183,0.0,0.0,75,0.00,,,0.00,,2013-04-14 07:52:00,
2013-04-14 03:02:00,46.0,39.0,29.91,South,183,0.0,0.0,75,0.00,,,0.00,,2013-04-14 08:02:00,
2013-04-14 03:12:00,46.0,39.0,29.91,South,183,0.0,0.0,75,0.00,,,0.00,,2013-04-14 08:12:00,
2013-04-14 03:22:00,46.0,39.0,29.91,South,183,0.0,0.0,75,0.00,,,0.00,,2013-04-14 08:22:00,
2013-04-14 03:32:00,46.0,40.0,29.91,South,183,0.0,0.0,79,0.00,,,0.00,,2013-04-14 08:32:00,
2013-04-14 03:42:00,46.0,40.0,29.91,South,183,0.0,0.0,79,0.00,,,0.00,,2013-04-14 08:42:00,
2013-04-14 03:52:00,46.0,40.0,29.91,South,183,0.0,0.0,78,0.00,,,0.00,,2013-04-14 08:52:00,
2013-04-14 04:03:00,46.0,40.0,29.91,South,183,0.0,0.0,78,0.00,,,0.00,,2013-04-14 09:03:00,
2013-04-14 04:12:00,46.0,40.0,29.91,South,183,0.0,0.0,78,0.00,,,0.00,,2013-04-14 09:12:00,
2013-04-14 04:22:00,46.0,40.0,29.91,South,183,0.0,0.0,78,0.00,,,0.00,,2013-04-14 09:22:00,
2013-04-14 04:32:00,45.0,39.0,29.90,South,183,0.0,0.0,79,0.00,,,0.00,,2013-04-14 09:32:00,
2013-04-14 04:42:00,45.0,39.0,29.90,South,183,0.0,0.0,79,0.00,,,0.00,,2013-04-14 09:42:00,
2013-04-14 04:53:00,45.0,39.0,29.90,South,183,0.0,0.0,79,0.00,,,0.00,,2013-04-14 09:53:00,
2013-04-14 05:03:00,45.0,39.0,29.88,South,183,0.0,0.0,80,0.00,,,0.00,,2013-04-14 10:03:00,
2013-04-14 05:12:00,45.0,39.0,29.88,South,183,0.0,0.0,80,0.00,,,0.00,,2013-04-14 10:12:00,
2013-04-14 05:23:00,44.0,39.0,29.88,South,183,0.0,0.0,81,0.00,,,0.00,,2013-04-14 10:23:00,
2013-04-14 05:32:00,44.0,39.0,29.88,South,183,0.0,0.0,82,0.00,,,0.00,,2013-04-14 10:32:00,
2013-04-14 05:42:00,44.0,39.0,29.88,South,183,0.0,0.0,82,0.00,,,0.00,,2013-04-14 10:42:00,
2013-04-14 05:52:00,44.0,39.0,29.88,South,183,0.0,0.0,82,0.00,,,0.00,,2013-04-14 10:52:00,
2013-04-14 06:02:00,45.0,40.0,29.88,South,183,0.0,1.0,83,0.00,,,0.00,,2013-04-14 11:02:00,
2013-04-14 06:12:00,45.0,40.0,29.88,South,183,0.0,1.0,83,0.00,,,0.00,,2013-04-14 11:12:00,
2013-04-14 06:22:00,45.0,40.0,29.88,South,183,1.0,1.0,84,0.00,,,0.00,,2013-04-14 11:22:00,
2013-04-14 06:32:00,46.0,41.0,29.88,South,183,0.0,0.0,83,0.00,,,0.00,,2013-04-14 11:32:00,
2013-04-14 06:42:00,46.0,41.0,29.88,South,183,0.0,0.0,83,0.00,,,0.00,,2013-04-14 11:42:00,
2013-04-14 06:52:00,46.0,41.0,29.88,South,183,0.0,0.0,82,0.00,,,0.00,,2013-04-14 11:52:00,
2013-04-14 07:02:00,47.0,41.0,29.88,South,183,0.0,0.0,81,0.00,,,0.00,,2013-04-14 12:02:00,
2013-04-14 07:12:00,47.0,41.0,29.88,South,183,0.0,0.0,81,0.00,,,0.00,,2013-04-14 12:12:00,
2013-04-14 07:22:00,47.0,42.0,29.88,South,183,0.0,0.0,82,0.00,,,0.00,,2013-04-14 12:22:00,
2013-04-14 07:32:00,48.0,43.0,29.89,South,183,0.0,0.0,82,0.00,,,0.00,,2013-04-14 12:32:00,
2013-04-14 07:42:00,48.0,43.0,29.89,South,183,0.0,0.0,82,0.00,,,0.00,,2013-04-14 12:42:00,
2013-04-14 07:51:00,48.0,43.0,29.89,South,183,0.0,0.0,82,0.00,,,0.00,,2013-04-14 12:51:00,
2013-04-14 08:02:00,49.0,44.0,29.89,South,183,0.0,0.0,82,0.00,,,0.00,,2013-04-14 13:02:00,
2013-04-14 08:12:00,49.0,44.0,29.89,South,183,0.0,0.0,82,0.00,,,0.00,,2013-04-14 13:12:00,
2013-04-14 08:22:00,49.0,44.0,29.89,South,183,0.0,0.0,82,0.00,,,0.00,,2013-04-14 13:22:00,
2013-04-14 08:32:00,51.0,45.0,29.89,South,183,0.0,1.0,79,0.00,,,0.00,,2013-04-14 13:32:00,
2013-04-14 08:42:00,51.0,45.0,29.89,South,183,0.0,1.0,79,0.00,,,0.00,,2013-04-14 13:42:00,
2013-04-14 08:52:00,52.0,45.0,29.89,ENE,60,0.0,0.0,77,0.00,,,0.00,,2013-04-14 13:52:00,
2013-04-14 09:02:00,54.0,44.0,29.87,ESE,123,1.0,4.0,69,0.00,,,0.00,,2013-04-14 14:02:00,
2013-04-14 09:12:00,56.0,44.0,29.87,ESE,123,1.0,3.0,65,0.00,,,0.00,,2013-04-14 14:12:00,
2013-04-14 09:22:00,56.0,44.0,29.87,ESE,123,1.0,3.0,65,0.00,,,0.00,,2013-04-14 14:22:00,
2013-04-14 09:32:00,58.0,45.0,29.86,South,180,4.0,4.0,61,0.00,,,0.00,,2013-04-14 14:32:00,
2013-04-14 09:42:00,58.0,45.0,29.86,South,180,4.0,4.0,61,0.00,,,0.00,,2013-04-14 14:42:00,
2013-04-14 09:52:00,59.0,46.0,29.86,SSE,157,3.0,3.0,61,0.00,,,0.00,,2013-04-14 14:52:00,
2013-04-14 10:02:00,59.0,46.0,29.86,SSE,157,3.0,3.0,61,0.00,,,0.00,,2013-04-14 15:02:00,
2013-04-14 10:12:00,59.0,46.0,29.86,SSE,157,3.0,3.0,61,0.00,,,0.00,,2013-04-14 15:12:00,
2013-04-14 10:22:00,59.0,46.0,29.86,SSE,157,3.0,3.0,61,0.00,,,0.00,,2013-04-14 15:22:00,
2013-04-14 21:53:00,63.0,48.0,29.74,SSW,192,9.0,9.0,57,0.00,,,0.00,,2013-04-15 02:53:00,
2013-04-14 22:03:00,63.0,48.0,29.74,SSW,192,9.0,9.0,57,0.00,,,0.00,,2013-04-15 03:03:00,
2013-04-14 22:12:00,63.0,48.0,29.74,SSW,192,9.0,9.0,57,0.00,,,0.00,,2013-04-15 03:12:00,
2013-04-14 22:22:00,63.0,48.0,29.74,SSW,192,9.0,9.0,57,0.00,,,0.00,,2013-04-15 03:22:00,